Date String (YYYY-MM-DD hh:mm:ss) UTC,Instrument flags,absolute air pressure of the measurement (hPa),sample flow rate (lpm),inlet stack bypass flow (lpm),air temperature of the measurement (°C),ambient temperature measured by the external sensor (°C),aerosol sample conditioner tube jacket temperature (°C),OPC LED temperature (°C),internal box temperature (°C),relative humidity of the measurement (%),span deviation,mass concentration of particles derived from Lorenz-Mie calculation of OPC scattering (μg/m³),mass concentration of particles derived from Lorenz-Mie calculation of OPC scattering (μg/m³),mass concentration of particles derived from Lorenz-Mie calculation of OPC scattering (μg/m³)
DateTimeUTC,F1_M11,P_M11,Q1_M11,Q2_M11,T1_M11,T2_M11,T3_M11,T4_M11,T5_M11,U1_M11,ZSPAN_M11,X2_M11,X0_M11,X1_M11
2024-03-29 11:00:00,SystemResetWarning,0821.2,5.01,000.00,021.3,020.3,000.0,030.0,023.1,18.7,0000.0,0003.79,0007.83,0002.92
2024-03-29 11:01:00,SystemResetWarning,0821.2,4.99,000.00,021.2,020.3,000.0,029.9,023.0,18.7,0000.0,0003.78,0007.89,0002.91
2024-03-29 11:02:00,SystemResetWarning,0821.2,4.99,000.00,021.2,020.3,000.0,029.9,023.0,18.7,0000.0,0003.77,0007.92,0002.90
2024-03-29 11:03:00,SystemResetWarning,0821.2,5.00,000.00,021.2,020.3,000.0,029.9,023.0,18.8,0000.0,0003.77,0008.05,0002.89
2024-03-29 11:04:00,SystemResetWarning,0821.2,5.00,000.00,021.2,020.3,000.0,029.9,023.0,18.9,0000.0,0003.76,0008.02,0002.88
2024-03-29 11:05:00,SystemResetWarning,0821.2,5.01,000.00,021.2,020.3,000.0,029.9,023.0,18.9,0000.0,0003.74,0007.72,0002.85
2024-03-29 11:06:00,SystemResetWarning,0821.3,5.01,000.00,021.2,020.3,000.0,029.9,023.1,18.9,0000.0,0003.71,0007.67,0002.84
2024-03-29 11:07:00,SystemResetWarning,0821.4,5.00,000.00,021.2,020.3,000.0,029.9,023.0,19.0,0000.0,0003.70,0007.61,0002.82
2024-03-29 11:08:00,SystemResetWarning,0821.4,4.99,000.00,021.2,020.3,000.0,029.9,023.0,19.0,0000.0,0003.69,0007.58,0002.81
2024-03-29 11:09:00,SystemResetWarning,0822.0,4.99,000.00,021.2,020.3,000.0,029.9,023.0,19.0,0000.0,0003.68,0007.50,0002.81
2024-03-29 11:10:00,SystemResetWarning,0822.0,4.99,000.00,021.2,020.3,000.0,029.9,023.0,19.0,0000.0,0003.65,0007.54,0002.80
2024-03-29 11:11:00,SystemResetWarning,0822.1,5.00,000.00,021.2,020.3,000.0,029.9,023.0,19.2,0000.0,0003.64,0007.50,0002.77
2024-03-29 11:12:00,SystemResetWarning,0822.0,5.01,000.00,021.2,020.3,000.0,029.9,023.0,19.3,0000.0,0003.63,0007.48,0002.73
2024-03-29 11:13:00,SystemResetWarning,0822.0,5.01,000.00,021.2,020.3,000.0,029.9,023.0,19.3,0000.0,0003.58,0007.53,0002.68
2024-03-29 11:14:00,SystemResetWarning,0822.0,4.99,000.00,021.2,020.3,000.0,029.9,023.0,19.3,0000.0,0003.49,0007.55,0002.66
2024-03-29 11:15:00,SystemResetWarning,0821.6,5.00,000.00,021.2,020.3,000.0,029.8,023.0,19.3,0000.0,0003.44,0007.42,0002.62
2024-03-29 11:16:00,SystemResetWarning,0821.4,5.00,000.00,021.2,020.3,000.0,029.8,023.0,19.3,0000.0,0003.39,0007.94,0002.60
2024-03-29 11:17:00,SystemResetWarning,0821.4,4.99,000.00,021.2,020.3,000.0,029.8,023.0,19.3,0000.0,0003.33,0007.90,0002.56
2024-03-29 11:18:00,SystemResetWarning,0821.4,4.99,000.00,021.2,020.3,000.0,029.8,023.0,19.3,0000.0,0003.33,0008.14,0002.54
2024-03-29 11:19:00,SystemResetWarning,0821.5,5.00,000.00,021.2,020.3,000.0,029.8,023.0,19.2,0000.0,0003.33,0008.45,0002.52
2024-03-29 11:20:00,SystemResetWarning,0821.3,4.99,000.00,021.2,020.3,000.0,029.8,023.0,19.2,0000.0,0003.35,0008.87,0002.51
2024-03-29 11:21:00,SystemResetWarning,0821.4,5.01,000.00,021.1,020.3,000.0,029.8,023.0,19.1,0000.0,0003.40,0009.93,0002.52
2024-03-29 11:22:00,SystemResetWarning,0821.4,5.00,000.00,021.1,020.3,000.0,029.8,023.0,19.0,0000.0,0003.42,0010.51,0002.54
2024-03-29 11:23:00,SystemResetWarning,0821.6,5.00,000.00,021.1,020.3,000.0,029.8,023.0,19.0,0000.0,0003.41,0010.95,0002.59
2024-03-29 11:24:00,SystemResetWarning,0822.0,5.01,000.00,021.1,020.3,000.0,029.8,023.0,18.9,0000.0,0003.42,0011.23,0002.64
2024-03-29 11:25:00,SystemResetWarning,0822.0,5.01,000.00,021.1,020.2,000.0,029.8,022.9,18.9,0000.0,0003.45,0010.98,0002.66
2024-03-29 11:26:00,SystemResetWarning,0821.9,5.00,000.00,021.1,020.2,000.0,029.8,022.9,18.8,0000.0,0003.51,0011.11,0002.71
2024-03-29 11:27:00,SystemResetWarning,0821.6,5.00,000.00,021.1,020.1,000.0,029.8,022.9,18.8,0000.0,0003.55,0010.75,0002.76
2024-03-29 11:28:00,SystemResetWarning,0821.6,5.00,000.00,021.1,020.1,000.0,029.8,022.9,18.8,0000.0,0003.61,0010.61,0002.81
2024-03-29 11:29:00,SystemResetWarning,0821.6,4.99,000.00,021.1,020.1,000.0,029.7,022.9,18.8,0000.0,0003.63,0010.50,0002.86
2024-03-29 11:30:00,SystemResetWarning,0821.7,4.99,000.00,021.0,020.1,000.0,029.7,022.8,18.8,0000.0,0003.70,0010.61,0002.92
2024-03-29 11:31:00,SystemResetWarning,0821.6,5.00,000.00,021.0,020.0,000.0,029.7,022.8,18.9,0000.0,0003.71,0010.37,0002.96
2024-03-29 11:32:00,SystemResetWarning,0821.6,5.00,000.00,021.0,020.0,000.0,029.7,022.8,18.9,0000.0,0003.70,0009.56,0002.98
2024-03-29 11:33:00,SystemResetWarning,0821.6,5.00,000.00,021.0,020.0,000.0,029.7,022.8,18.9,0000.0,0003.68,0008.71,0003.00
2024-03-29 11:34:00,SystemResetWarning,0821.6,5.01,000.00,020.9,019.9,000.0,029.7,022.7,19.0,0000.0,0003.68,0008.42,0003.01
2024-03-29 11:35:00,SystemResetWarning,0821.6,5.00,000.00,020.9,019.9,000.0,029.7,022.7,19.1,0000.0,0003.67,0008.22,0003.02
2024-03-29 11:36:00,SystemResetWarning,0821.7,4.99,000.00,020.9,019.8,000.0,029.7,022.7,19.2,0000.0,0003.70,0008.00,0003.04
2024-03-29 11:37:00,SystemResetWarning,0821.7,4.99,000.00,020.9,019.8,000.0,029.6,022.6,19.4,0000.0,0003.68,0008.03,0003.02
2024-03-29 11:38:00,SystemResetWarning,0821.8,5.00,000.00,020.9,019.8,000.0,029.6,022.6,19.4,0000.0,0003.66,0008.00,0003.00
2024-03-29 11:39:00,SystemResetWarning,0821.8,5.02,000.00,020.8,019.8,000.0,029.6,022.6,19.5,0000.0,0003.63,0008.78,0002.95
2024-03-29 11:40:00,SystemResetWarning,0821.9,5.00,000.00,020.8,019.7,000.0,029.6,022.6,19.6,0000.0,0003.60,0008.81,0002.92
2024-03-29 11:41:00,SystemResetWarning,0821.9,5.00,000.00,020.8,019.7,000.0,029.6,022.5,19.7,0000.0,0003.51,0008.43,0002.85
2024-03-29 11:42:00,SystemResetWarning,0822.0,4.99,000.00,020.8,019.7,000.0,029.5,022.5,19.7,0000.0,0003.44,0008.08,0002.78
2024-03-29 11:43:00,SystemResetWarning,0822.0,4.99,000.00,020.7,019.6,000.0,029.5,022.5,19.8,0000.0,0003.35,0008.35,0002.72
2024-03-29 11:44:00,SystemResetWarning,0822.0,5.00,000.00,020.7,019.6,000.0,029.5,022.5,19.9,0000.0,0003.29,0009.46,0002.62
2024-03-29 11:45:00,SystemResetWarning,0821.9,5.01,000.00,020.7,019.6,000.0,029.5,022.4,19.9,0000.0,0003.25,0010.11,0002.55
2024-03-29 11:46:00,SystemResetWarning,0821.8,5.01,000.00,020.7,019.6,000.0,029.5,022.4,19.9,0000.0,0003.23,0009.86,0002.50
2024-03-29 11:47:00,SystemResetWarning,0821.8,5.00,000.00,020.6,019.5,000.0,029.4,022.4,19.9,0000.0,0003.19,0009.77,0002.45
2024-03-29 11:48:00,SystemResetWarning,0821.8,4.99,000.00,020.6,019.6,000.0,029.4,022.4,20.0,0000.0,0003.14,0009.62,0002.39
2024-03-29 11:49:00,SystemResetWarning,0821.7,4.99,000.00,020.6,019.6,000.0,029.4,022.4,20.0,0000.0,0003.14,0009.73,0002.32
2024-03-29 11:50:00,SystemResetWarning,0821.7,5.01,000.00,020.6,019.6,000.0,029.4,022.4,20.0,0000.0,0003.10,0009.00,0002.25
2024-03-29 11:51:00,SystemResetWarning,0821.8,5.01,000.00,020.6,019.6,000.0,029.4,022.4,20.0,0000.0,0003.05,0009.00,0002.19
2024-03-29 11:52:00,SystemResetWarning,0821.8,5.00,000.00,020.6,019.6,000.0,029.4,022.4,20.1,0000.0,0003.03,0009.03,0002.14
2024-03-29 11:53:00,SystemResetWarning,0821.8,5.00,000.00,020.6,019.6,000.0,029.4,022.4,20.1,0000.0,0003.05,0009.59,0002.11
2024-03-29 11:54:00,SystemResetWarning,0821.8,5.00,000.00,020.6,019.5,000.0,029.3,022.3,20.1,0000.0,0003.09,0010.06,0002.10
2024-03-29 11:55:00,SystemResetWarning,0821.8,5.00,000.00,020.5,019.5,000.0,029.3,022.3,20.1,0000.0,0003.12,0008.99,0002.11
2024-03-29 11:56:00,SystemResetWarning,0821.7,5.00,000.00,020.5,019.5,000.0,029.3,022.3,20.1,0000.0,0003.12,0007.94,0002.12
2024-03-29 11:57:00,SystemResetWarning,0821.8,5.00,000.00,020.5,019.4,000.0,029.3,022.3,20.2,0000.0,0003.11,0007.95,0002.11
2024-03-29 11:58:00,SystemResetWarning,0821.8,5.01,000.00,020.5,019.4,000.0,029.3,022.2,20.2,0000.0,0003.10,0007.94,0002.11
2024-03-29 11:59:00,SystemResetWarning,0821.8,5.01,000.00,020.5,019.4,000.0,029.2,022.2,20.2,0000.0,0003.11,0008.18,0002.13
